Regional Weather Roundup
Issued by NWS

Home | Current Version | Previous Version | Graphics & Text | Print | Product List | Glossary On
Versions: 1 2 3 4 5 6 7 8 9 10 11 12 13 14 15 16 17 18 19 20 21 22 23 24 25 26 27
000
ASUS45 KBOU 182107
RWRCO

WEATHER ROUNDUP FOR COLORADO
NATIONAL WEATHER SERVICE DENVER/BOULDER CO
300 PM MDT FRI AUG 18 2017

NOTE: "FAIR" INDICATES FEW OR NO CLOUDS BELOW 12000 FEET WITH NO
SIGNIFICANT WEATHER AND/OR OBSTRUCTIONS TO VISIBILITY.

COZ001>005-013-030-031-182200-
...NORTHWEST COLORADO...

CITY           SKY/WX    TMP DP  RH WIND       PRES   REMARKS
CRAIG          FAIR      86  27  11 W14G20    30.24F
HAYDEN         FAIR      82  31  15 W14G21    30.27F
MEEKER         FAIR      85  35  16 SE7       30.24F
RABBIT EARS PA FAIR      63  32  31 NW9G16    30.58S
STEAMBOAT SPGS FAIR      80  32  17 W12G21    30.29F
WALDEN         FAIR      75  30  19 SW12G20   30.39S
$$

COZ006>008-011-182200-
...WEST CENTRAL VALLEYS...

CITY           SKY/WX    TMP DP  RH WIND       PRES   REMARKS
GRAND JUNCTION FAIR      91  33  12 NW14      30.13F
MONTROSE       FAIR      87  36  16 NW8       30.22F
EAGLE          FAIR      85  32  15 SW16      30.26F
RIFLE          FAIR      90  24   9 W16G23    30.17F
DELTA          FAIR      92  31  11 S8        30.16F
NUCLA          FAIR      88  27  11 NE8       30.25F
$$

COZ017>023-064>068-182200-
...SOUTHWEST COLORADO...

CITY           SKY/WX    TMP DP  RH WIND       PRES   REMARKS
DURANGO        FAIR      84  25  11 W7        30.28F
CORTEZ         FAIR      89  27  10 SW12      30.23F
PAGOSA SPRINGS PTSUNNY   80  18   9 W8        30.36F
TELLURIDE      FAIR      73  30  21 N3        30.49F
WOLF CREEK PAS CLOUDY    57  32  38 W8G17     30.75S
$$

COZ009-010-012-014-032>034-037-058>063-182200-
...CENTRAL COLORADO...

CITY           SKY/WX    TMP DP  RH WIND       PRES   REMARKS
ASPEN          FAIR      79  33  19 MISG      30.35S
BUENA VISTA    PTSUNNY   79  30  16 SE13      30.35F
COPPER MTN     FAIR      61  28  29 NW16      30.69S
BERTHOUD PASS  PTSUNNY   50  45  81 NW18G24   30.72S
COTTONWOOD PAS FAIR      73  19  13 S10       30.51F
GUNNISON       FAIR      76  36  23 E7        30.35F
KREMMLING      PTSUNNY   86  27  11 W8        30.32F
LEADVILLE      FAIR      68  24  19 W13       30.47F
MONARCH PASS   FAIR      61  25  25 W22G31    30.80S
SALIDA         PTSUNNY   83  25  12 W10G16    30.39F
SUNLIGHT       FAIR      64  34  32 SW7       30.62F
WILKERSON PASS FAIR      63  28  27 W7        30.65F
$$

COZ069>075-182200-
...SAN LUIS VALLEY/SANGRE DE CRISTO MOUNTAINS...

CITY           SKY/WX    TMP DP  RH WIND       PRES   REMARKS
ALAMOSA        FAIR      80  31  16 VRB3      30.35F
DEL NORTE      FAIR      77  37  23 SE10      30.38S
LA VETA PASS   NOT AVBL
SAGUACHE       FAIR      79  36  21 S3        30.38F
$$

COZ035-036-038>040-182200-
...NORTHERN COLORADO FRONT RANGE...

CITY           SKY/WX    TMP DP  RH WIND       PRES   REMARKS
DENVER INTL AP FAIR      86  38  18 NE10      30.16F
DMNS CITY PARK   N/A     90  36  14 E7        30.14S
AURORA         MOSUNNY   85  42  21 E5        30.18F
FRONT RANGE AP FAIR      86  36  16 CALM      30.18F
ERIE MUNI ARPT FAIR      87  36  16 E9        30.18F
BOULDER MUN AP FAIR      84  43  23 N5        30.15F HAZE
CENTENNIAL     FAIR      86  35  16 N6        30.19F
BROOMFIELD     MOSUNNY   86  39  19 E6        30.18
FORT COLLINS   FAIR      86  47  25 VRB3      30.14F HAZE
LONGMONT       FAIR      89  43  20 E5        30.15F
$$

COZ041-046-047-076>085-087-088-182200-
...PIKES PEAK/PALMER DIVIDE AND SOUTHERN FOOTHILLS...

CITY           SKY/WX    TMP DP  RH WIND       PRES   REMARKS
COLO. SPRINGS  FAIR      84  44  24 SE12G21   30.24F
A. F. ACADEMY  FAIR      80  41  24 SE7G18    30.24F
SCHRIEVER AFB  FAIR      81  41  24 SE8       30.25F
CHEYENNE MTN   FAIR      77  41  27 SE14G21   30.24F
ELLICOTT       FAIR     N/A N/A N/A SW8       30.23F
FALCON         FAIR      80  38  22 SE8G18    30.30F
FORT CARSON    FAIR      83  45  25 SE10      30.21F
LIMON          FAIR      84  43  23 NW7       30.18F
MONUMENT HILL  FAIR      77  48  36 S14       30.31F
CANON CITY     SUNNY     91  45  19 E10       30.15F
WALSENBURG     MOCLDY    88  34  14 CALM      30.21F
TRINIDAD       FAIR      87  35  15 N6        30.21F
$$

COZ042>045-048>051-090-091-182200-
...NORTHEAST COLORADO...

CITY           SKY/WX    TMP DP  RH WIND       PRES   REMARKS
GREELEY ARPT   FAIR      84  46  26 CALM      30.13F
AKRON          FAIR      84  42  22 N3        30.14F
BURLINGTON     FAIR      85  52  32 E8        30.12F
WRAY           NOT AVBL
YUMA           FAIR      81  30  16 CALM      30.12S
STERLING       FAIR      86  45  23 S7        30.09F
HOLYOKE        FAIR      88  43  20 SE3       30.09F
FORT MORGAN    FAIR      87  38  17 E3        30.13F
$$

COZ086-089-092>099-182200-
...SOUTHEAST COLORADO...

CITY           SKY/WX    TMP DP  RH WIND       PRES   REMARKS
PUEBLO         FAIR      91  41  17 E7        30.11F
LA JUNTA       FAIR      93  47  20 N6        30.11F
LAMAR          FAIR      91  50  24 VRB5      30.05F
SPRINGFIELD      N/A     88  52  29 NW9       30.10F
$$




USA.gov is the U.S. government's official web portal to all federal, state and local government web resources and services.